Regional Weather Roundup
Issued by NWS

Home | Current Version | Previous Version | Text Only | Print | Product List | Glossary Off
Versions: 1 2 3 4 5 6 7 8 9 10 11 12 13 14 15 16 17 18 19 20 21 22 23 24 25 26 27 28 29 30 31 32 33 34 35 36 37 38 39 40 41 42 43 44 45 46 47 48 49 50

000
ASUS43 KOAX 241510
RWRNE

WEATHER ROUNDUP FOR NEBRASKA
NATIONAL WEATHER SERVICE OMAHA NE
1000 AM CDT SUN MAY 24 2015

NOTES: SATELLITE DATA IS BEING USED TO AUGMENT CLOUD COVER ABOVE
       12000 FEET.
       "FAIR" INDICATES FEW OR NO CLOUDS BELOW 12,000 FEET WITH NO
       SIGNIFICANT WEATHER AND/OR OBSTRUCTIONS TO VISIBILITY.

  * THESE STATIONS DO NOT REPORT WEATHER SUCH AS RAIN...SNOW OR FOG.

NEZ001>004-019>022-054>056-241600-
NEBRASKA PANHANDLE

CITY           SKY/WX    TMP DP  RH WIND       PRES   REMARKS
SCOTTSBLUFF    PTSUNNY   56  50  80 CALM      29.88F
ALLIANCE       CLOUDY    53  51  93 NE10      29.87F
CHADRON        CLOUDY    56  53  90 NE10      29.88F
KIMBALL          N/A    N/A N/A N/A MISG        N/A
SIDNEY         CLOUDY    50  49  96 W5        29.90R
$$

NEZ057>060-069>072-079>082-241600-
SOUTHWEST NEBRASKA

CITY           SKY/WX    TMP DP  RH WIND       PRES   REMARKS
NORTH PLATTE   CLOUDY    57  54  89 SE5       29.89R
IMPERIAL       CLOUDY    57  52  83 E6        29.88R
LEXINGTON      CLOUDY    59  58  94 CALM      29.87S
MCCOOK         CLOUDY    61  55  81 MISG      29.87S
OGALLALA       CLOUDY    57  55  94 SE8       29.88S
$$

NEZ005>010-023>029-035>040-094-241600-
NORTH CENTRAL NEBRASKA

CITY           SKY/WX    TMP DP  RH WIND       PRES   REMARKS
VALENTINE      LGT RAIN  56  55  97 E9        29.90F
AINSWORTH      CLOUDY    57  57 100 E9        29.90F FOG
BROKEN BOW     CLOUDY    60  57  89 SE6       29.87S
O`NEILL        CLOUDY    59  59  99 NE6       29.90F FOG
ORD            CLOUDY    60  58  92 NE8       29.85F
THEDFORD       CLOUDY    58  57  97 SE6       29.89S
$$

NEZ041-046>049-061>064-073>077-083>087-241600-
SOUTH CENTRAL NEBRASKA

CITY           SKY/WX    TMP DP  RH WIND       PRES   REMARKS
GRAND ISLAND   CLOUDY    60  58  92 CALM      29.86F
AURORA         CLOUDY    61  61 100 CALM      29.86F
HASTINGS       CLOUDY    63  58  83 CALM      29.85F
HEBRON         CLOUDY    64  59  86 N3        29.84F
HOLDREGE       CLOUDY    59  56  89 CALM      29.86S
KEARNEY *      CLOUDY    61  55  82 CALM      29.86S
YORK           CLOUDY    63  59  88 W3        29.85F
$$

NEZ011>018-030>034-042>045-241600-
NORTHEAST NEBRASKA

CITY           SKY/WX    TMP DP  RH WIND       PRES   REMARKS
NORFOLK        CLOUDY   N/A N/A N/A E3        29.86F FOG
ALBION         CLOUDY    60  58  94 NE5       29.87F FOG
BLAIR          CLOUDY    61  59  94 E6        29.84F FOG
COLUMBUS *     CLOUDY    59  54  82 CALM      29.89S
FREMONT        CLOUDY    62  60  94 E5        29.84F FOG
TEKAMAH        CLOUDY    62  60  93 E7        29.85S
WAYNE          DRIZZLE   60  59  95 E10       29.87F
$$

NEZ050>053-065>068-078-088>093-241600-
SOUTHEAST NEBRASKA

CITY           SKY/WX    TMP DP  RH WIND       PRES   REMARKS
LINCOLN        CLOUDY    62  60  93 CALM      29.85S FOG
OMAHA EPPLEY   CLOUDY    63  61  93 SE7       29.84S
BEATRICE       CLOUDY    63  61  94 W8        29.85R
FALLS CITY     CLOUDY    66  63  90 SW7       29.83F
NEBRASKA CITY  CLOUDY    63  63 100 S6        29.83F FOG
PLATTSMOUTH    CLOUDY    62  60  94 SE5       29.83F FOG
$$

NEZ044-045-051>053-067-241600-
OMAHA AREA

CITY           SKY/WX    TMP DP  RH WIND       PRES   REMARKS
OMAHA EPPLEY   CLOUDY    63  61  93 SE7       29.84S
BLAIR          CLOUDY    61  59  94 E6        29.84F FOG
FREMONT        CLOUDY    62  60  94 E5        29.84F FOG
MILLARD        CLOUDY    63  61  93 E5        29.83F FOG
OFFUTT AFB     CLOUDY    62  61  97 SE5       29.82F
PLATTSMOUTH    CLOUDY    62  60  94 SE5       29.83F FOG
WAHOO          CLOUDY    62  60  95 SE5       29.84S
$$



USA.gov is the U.S. government's official web portal to all federal, state and local government web resources and services.